EHI
0 0 0 0 0 0 0 0 0 0 0 0 0 0 0 0 0 0 0 0 0 0 0 0 0 0 0 0 0 0 0 0 0 0 0 0 0 0 0 0 0 0 0 0
0 0 0 0 0 0 0 0 0 0 0 0 0 0 0 0 0 0 0 0 0 0 0 0 0 0 0 0 0 0 0 0 0 0 0 0 0 0 0 0 0 0 0 0
0 0 0 0 0 0 0 0 0 0 0 0 0 0 0 0 0 0 0 0 0 0 0 0 0 0 0 0 0 0 0 0 0 0 0 0 0 0 0 0 0 0 0 0
0 0 0 0 0 0 0 0 0 0 0 0 0 0 0 0 0 0 0 0 0 0 0 0 0 0 0 0 0 0 0 1 1 1 0 0 0 0 0 0 0 0 0 0
0 0 0 0 0 0 0 0 0 0 0 0 0 0 0 0 0 0 0 0 0 0 0 0 0 0 0 0 0 0 1 2 2 2 1 0 0 0 0 0 0 0 0 0
0 0 0 0 0 0 0 0 0 0 0 0 0 0 0 0 0 0 0 0 0 0 0 0 0 0 0 0 0 0 1 2 3 3 2 1 0 0 0 0 0 0 0 0
0 0 0 0 0 0 0 0 0 0 0 0 0 0 0 0 0 0 0 0 0 0 0 0 0 0 0 0 0 0 0 1 2 3 3 1 1 1 1 0 0 0 0 0
0 0 0 0 0 0 0 0 0 0 0 0 0 0 0 0 0 0 0 0 0 0 0 0 0 0 0 0 0 0 0 0 1 2 3 3 2 2 2 1 0 0 0 0
0 0 0 0 0 0 0 0 0 0 0 0 0 0 0 0 0 0 0 0 0 0 0 0 0 0 0 0 0 0 0 0 0 1 3 3 3 3 2 1 0 0 0 0
0 0 0 0 0 0 0 0 0 0 0 0 0 0 0 0 0 0 0 0 0 0 0 0 0 0 0 0 0 0 0 0 0 1 2 3 3 3 2 1 0 0 0 0
0 0 0 0 0 0 0 0 0 0 0 0 0 0 0 0 0 0 0 0 0 0 0 0 0 0 0 0 0 0 0 0 0 0 1 2 2 2 2 1 0 0 0 0
0 0 0 0 0 0 0 0 0 0 0 0 0 0 0 0 0 0 0 0 0 0 0 0 0 0 0 0 0 0 0 0 0 0 0 1 1 1 1 0 0 0 0 0
0 0 0 0 0 0 0 0 0 0 0 0 0 0 0 0 0 0 0 0 0 0 0 0 0 0 0 0 0 0 0 0 0 0 0 0 0 0 0 0 0 0 0 0
0 0 0 0 0 0 0 0 0 0 0 0 0 0 0 0 0 0 0 0 0 0 0 0 0 0 0 0 0 0 0 0 0 0 0 0 0 0 0 0 0 0 0 0
0 0 0 0 0 0 0 0 0 0 0 0 0 0 0 0 0 0 0 0 0 0 0 0 0 0 0 0 0 0 0 0 0 0 0 0 0 0 0 0 0 0 0 0
0 0 0 0 0 0 0 0 0 0 0 0 0 0 0 0 0 0 0 0 0 0 0 0 0 0 0 0 0 0 0 0 0 0 0 0 0 0 0 0 0 0 0 0
0 0 0 0 0 0 0 0 0 0 0 0 0 0 0 0 0 0 0 0 0 0 0 0 0 0 0 0 0 0 0 0 0 0 0 0 0 0 0 0 0 0 0 0
0 0 0 0 0 0 0 0 0 0 0 0 0 0 0 0 0 0 0 0 0 0 0 0 0 0 0 0 0 0 0 0 0 0 0 0 0 0 0 0 0 0 0 0
0 0 0 0 0 0 0 0 0 0 0 0 0 0 0 0 0 0 0 0 0 0 0 0 0 0 0 0 0 0 0 0 0 0 0 0 0 0 0 0 0 0 0 0
0 0 0 0 0 0 0 0 0 0 0 0 0 0 0 0 0 0 0 0 0 0 0 0 0 0 0 0 0 0 0 0 0 0 0 0 0 0 0 0 0 0 0 0
0 0 0 0 0 0 0 0 0 0 0 0 0 0 0 0 0 0 0 0 0 0 0 0 0 0 0 0 0 0 0 0 0 0 0 0 0 0 0 0 0 0 0 0
0 0 0 0 0 0 0 0 0 0 0 0 0 0 0 0 0 0 0 0 0 0 0 0 0 0 0 0 0 0 0 0 0 0 0 0 0 0 0 0 0 0 0 0
0 0 0 0 0 0 0 0 0 0 0 0 0 0 0 0 0 0 0 0 0 0 0 0 0 0 0 0 0 0 0 0 0 0 0 0 0 0 0 0 0 0 0 0
0 0 0 0 0 0 0 0 0 0 0 0 0 0 0 0 0 0 0 0 0 0 0 0 0 0 0 0 0 0 0 0 0 0 0 0 0 0 0 0 0 0 0 0
0 0 0 0 0 0 0 0 0 0 0 0 0 0 0 0 0 0 0 0 0 0 0 0 0 0 0 0 0 0 0 0 0 0 0 0 0 0 0 0 0 0 0 0
0 0 0 0 0 0 0 0 0 0 0 0 0 0 0 0 0 0 0 0 0 0 0 0 0 0 0 0 0 0 0 0 0 0 0 0 0 0 0 0 0 0 0 0
Wind_Speed
4 5 1 3 3 3 3 2 3 3 2 1 4 6 5 3 3 3 3 2 2 2 1 1 1 2 2 3 2 2 2 2 2 1 1 1 1 1 2 2 3 3 4 4
5 1 3 1 1 2 1 1 3 3 2 1 3 7 5 3 3 4 5 4 3 1 1 1 1 1 1 2 2 2 2 2 2 1 1 0 1 1 1 2 3 3 3 3
3 2 1 2 2 2 1 3 4 4 3 1 3 6 3 3 2 2 2 3 2 2 2 1 1 1 1 1 2 2 2 2 2 2 1 1 2 2 2 2 2 3 3 3
1 2 1 2 1 2 3 3 3 2 1 3 0 5 6 3 3 3 3 2 2 1 1 1 1 1 1 1 1 1 1 2 2 1 1 1 1 1 2 2 2 3 3 2
1 1 1 1 2 2 2 1 1 1 1 2 1 2 8 2 4 5 4 3 2 2 2 2 2 1 1 1 1 1 1 1 2 1 1 0 1 1 2 2 3 3 3 2
1 1 0 1 0 1 2 3 3 3 2 3 4 4 8 4 5 4 3 3 3 2 2 2 1 0 1 1 1 1 1 2 2 1 1 1 1 2 2 3 3 3 2 2
3 1 1 1 2 2 2 4 3 4 3 6 2 4 10 5 3 3 3 3 3 2 2 2 1 1 2 2 2 2 2 2 2 2 1 1 1 1 2 2 3 3 2 2
1 3 1 0 2 3 2 5 5 4 5 5 2 7 8 3 2 1 2 2 2 2 1 2 2 1 1 2 2 2 2 2 2 2 2 2 2 1 2 2 2 3 2 3
3 3 1 1 1 4 4 3 3 4 0 3 6 7 8 1 1 1 1 0 1 2 2 2 1 1 1 1 2 2 2 2 2 2 3 2 2 2 2 3 3 3 3 3
4 2 2 1 1 3 2 5 4 3 2 4 6 5 5 4 4 3 2 2 3 2 2 2 2 2 2 2 2 2 1 2 2 2 2 2 2 2 2 2 3 3 4 3
2 3 3 1 2 3 2 2 3 3 3 3 5 8 4 5 4 4 5 4 3 3 3 2 2 2 2 2 2 2 2 2 2 2 2 3 3 3 2 3 3 4 3 4
2 4 2 4 2 1 3 4 5 4 4 3 3 9 2 3 3 3 4 3 3 2 2 2 2 1 1 1 2 2 3 3 3 3 2 3 3 3 3 3 4 4 3 3
3 4 1 4 3 1 1 2 2 3 3 4 4 9 2 2 2 2 3 3 2 2 2 2 1 1 1 2 2 2 3 3 3 3 3 3 3 3 3 4 4 3 3 3
4 3 5 7 5 3 3 3 3 4 4 5 9 10 8 5 5 5 4 3 2 2 2 2 2 2 2 2 2 2 3 3 3 3 3 3 3 3 4 3 3 3 3 3
4 2 3 4 4 3 5 5 6 8 8 8 8 8 11 6 5 5 4 3 3 3 3 3 2 2 2 2 2 2 3 3 3 3 3 4 4 4 3 3 3 3 3 3
3 2 0 3 2 3 5 6 7 8 7 9 9 12 8 5 3 3 4 4 4 4 4 3 3 3 3 3 3 3 3 3 3 2 3 3 3 3 3 3 3 3 3 3
2 4 2 4 4 3 7 8 8 6 6 7 10 11 5 5 5 5 5 5 6 4 4 4 3 3 4 3 3 3 3 3 3 2 3 3 3 3 3 3 3 3 3 3
5 4 2 1 2 6 7 1 4 6 7 7 7 6 5 6 6 5 4 5 5 4 4 4 3 3 3 2 2 2 2 3 3 3 3 3 3 3 3 3 3 3 3 3
3 5 3 2 3 9 7 2 2 4 7 5 7 9 6 5 5 4 3 3 4 4 4 3 3 3 2 2 2 2 2 2 3 3 3 3 3 3 3 3 3 3 3 3
2 3 4 3 2 7 6 1 1 1 6 3 4 6 4 2 3 5 4 3 3 2 2 2 2 2 2 2 1 2 3 3 3 4 4 4 3 3 3 4 3 3 3 3
2 2 3 4 5 10 5 1 2 2 6 4 2 3 2 3 4 5 5 4 3 2 3 2 2 2 2 2 1 2 3 4 4 4 4 4 3 3 4 3 2 2 3 3
6 5 5 4 5 9 2 3 4 5 3 2 3 2 3 5 5 4 4 4 3 3 3 2 2 3 3 2 1 3 4 4 4 3 4 4 4 3 2 2 2 2 2 2
6 7 6 8 8 4 3 4 4 2 3 3 3 3 3 3 4 4 4 4 3 3 3 2 2 3 3 2 2 3 4 4 3 3 4 4 3 3 2 2 2 2 2 2
3 2 3 4 7 5 5 4 3 3 4 4 3 3 2 3 4 4 4 3 3 3 3 2 2 3 4 3 3 4 4 3 3 4 4 3 3 3 3 2 2 2 2 2
4 5 3 5 6 5 4 5 5 4 3 3 3 3 2 2 3 3 3 3 3 3 3 2 2 4 5 4 4 4 3 3 3 4 3 3 3 3 3 3 3 3 3 3
5 7 7 7 6 5 6 4 3 3 4 4 3 3 2 2 3 3 3 3 3 3 3 3 3 4 4 4 4 4 3 2 3 3 3 2 2 2 2 2 3 4 4 5
Wind_Direction
35 69 141 221 203 201 175 188 250 264 286 300 254 265 265 261 239 235 233 228 231 243 272 31 43 36 41 31 24 21 25 16 25 20 14 10 355 347 4 6 10 7 2 1
51 0 247 192 132 109 142 233 272 296 327 285 280 277 263 237 227 221 218 219 221 252 339 12 17 27 27 20 11 14 14 9 13 8 323 298 305 313 330 347 359 2 359 360
152 248 262 122 114 125 236 216 242 273 326 359 328 298 264 262 242 249 227 214 207 207 228 267 325 337 3 358 350 351 356 3 2 11 17 17 17 2 358 350 347 346 349 357
134 294 95 112 175 162 248 248 241 265 316 294 56 287 276 256 269 244 236 219 213 217 232 273 277 302 301 306 319 338 355 2 2 23 39 47 16 335 315 314 315 326 339 347
288 336 98 179 242 183 206 11 348 282 200 304 289 239 281 286 260 251 237 229 231 229 226 257 263 255 290 303 313 320 343 0 9 23 26 43 354 318 311 318 323 324 327 336
266 289 175 191 264 152 144 53 32 35 66 272 232 200 275 240 230 246 241 233 236 244 249 261 282 329 346 347 348 344 357 358 7 15 359 335 313 317 329 331 320 320 321 317
340 333 359 97 87 31 84 87 18 349 341 255 219 217 252 250 235 225 238 237 239 240 238 253 264 327 339 343 345 345 353 349 350 349 333 311 300 296 296 303 299 307 314 311
156 285 271 24 170 174 173 142 160 214 245 280 255 237 253 256 274 270 241 213 219 236 255 253 245 258 306 324 330 334 339 334 332 328 315 305 300 289 282 288 291 294 293 290
178 251 341 354 338 143 141 163 165 138 261 284 269 280 294 229 287 308 306 194 238 259 269 263 269 284 286 297 303 302 317 323 323 317 315 302 298 297 299 301 301 294 293 293
152 228 299 318 58 32 127 142 115 132 183 272 289 274 261 265 258 263 252 242 258 279 277 276 274 280 285 285 297 306 299 292 299 304 304 314 302 297 298 298 292 289 292 293
124 145 308 350 198 193 118 122 128 135 169 189 275 274 237 232 239 237 245 239 239 247 251 257 260 268 285 304 310 318 316 311 311 309 307 312 304 300 297 286 282 285 289 293
139 125 250 258 261 238 187 182 156 170 224 200 227 270 274 233 256 243 253 254 260 252 253 256 259 276 306 313 316 313 310 306 304 302 301 297 300 300 295 290 289 289 288 287
143 122 35 336 328 334 227 191 172 143 137 179 209 265 292 326 318 299 273 262 267 260 255 263 263 271 284 297 302 304 304 299 303 306 300 298 296 295 292 292 294 297 296 299
115 140 182 211 236 207 231 220 184 160 187 219 231 261 291 302 304 305 296 279 269 256 250 252 263 279 288 296 294 292 298 300 305 308 306 298 295 292 290 295 300 300 298 299
113 181 228 256 270 243 237 234 211 209 211 219 246 254 271 279 278 281 279 280 269 263 258 254 268 284 295 301 295 291 297 305 306 303 302 297 301 303 302 299 300 301 306 307
101 147 160 287 289 267 267 250 229 232 233 244 267 275 270 287 292 288 283 272 266 260 259 270 279 287 289 289 291 297 298 302 304 297 295 302 305 311 310 305 305 308 311 312
134 134 146 269 310 335 272 231 208 222 223 213 240 257 296 305 294 280 271 267 261 264 271 272 272 267 273 279 281 282 293 303 306 303 302 308 307 311 309 310 313 307 304 311
144 138 146 261 14 257 252 215 202 226 250 233 252 283 294 286 293 284 265 257 262 276 277 276 274 278 279 279 285 295 302 305 301 303 306 307 310 309 312 312 307 304 301 301
160 145 135 143 251 278 289 257 178 214 276 232 246 277 300 323 321 296 269 269 266 266 274 278 278 278 287 278 279 295 301 300 294 296 300 299 296 299 304 303 301 302 303 302
81 122 134 149 211 250 259 260 206 114 289 276 245 272 297 351 315 293 321 313 299 301 303 301 308 309 296 290 279 280 286 288 285 289 293 293 287 283 281 282 288 295 297 297
139 124 164 186 232 262 260 239 120 172 267 312 274 269 241 239 252 292 318 322 319 319 313 317 321 308 291 286 281 282 286 280 285 292 293 293 288 282 277 281 283 288 297 305
177 171 186 167 217 255 229 131 188 233 292 301 289 275 252 267 292 302 309 313 321 325 321 326 324 311 305 294 283 284 283 287 294 295 295 293 289 284 287 285 288 290 294 298
200 191 185 195 219 256 199 216 247 270 281 281 276 278 269 278 289 299 303 302 307 307 313 322 315 311 312 303 286 281 290 300 303 300 296 295 294 289 283 273 279 287 280 280
243 190 190 251 264 258 246 255 267 261 265 280 278 276 258 270 283 292 295 301 305 307 310 316 317 312 308 306 295 279 289 301 296 292 292 294 294 294 293 286 279 271 267 269
215 173 201 252 273 294 267 238 254 272 288 296 297 280 263 266 282 281 288 295 299 305 311 309 299 295 297 304 298 295 294 301 297 289 287 292 287 283 288 288 274 274 261 262
194 182 186 227 230 227 262 270 258 254 265 268 281 294 288 253 261 276 278 285 293 298 305 305 299 297 299 304 303 303 301 292 287 290 291 286 284 286 288 294 304 299 292 298